Pascagoula, MS

10:27 AM CDT on April 24, 2017 (GMT -0500)
Lott International

Weather History for KPQL - May, 2014

Change the Weather History Date:

Tuesday, May 13, 2014

  Actual Average Record
Temperature  
Mean Temperature 74 °F -  
Max Temperature 84 °F 82 °F 93 °F (1978)
Min Temperature 64 °F 64 °F 44 °F (1960)
Cooling Degree Days 9    
Growing Degree Days 24 (Base 50)    
Moisture  
Dew Point 68 °F    
Average Humidity 92    
Maximum Humidity 100    
Minimum Humidity 60    
Precipitation  
Precipitation 0.00 in - - ()
Sea Level Pressure  
Sea Level Pressure 30.05 in    
Wind  
Wind Speed 2 mph (SE)    
Max Wind Speed 13 mph    
Max Gust Speed 18 mph    
Visibility 5 miles    
Events      
Averages and records for this station are not official NWS values.
T = Trace of Precipitation, MM = Missing Value Source: NWS Daily Summary

Daily Weather History Graph

Daily Weather History Graph

Search for Another Location

Airport or City:

Trip Planner

Search our weather history database for the weather conditions in past years. The results will help you decide how hot, cold, wet, or windy it might be!

Date:

Astronomy

May. 13, 2014 Rise Set
Actual Time 6:01 AM CDT 7:40 PM CDT
Civil Twilight 5:34 AM CDT 8:06 PM CDT
Nautical Twilight 5:03 AM CDT 8:37 PM CDT
Astronomical Twilight 4:30 AM CDT 9:11 PM CDT
Moon 6:46 PM CDT (5/13) 5:10 AM CDT (5/13)
Length of Visible Light 14h 31m
Length of Day
13h 39m
Waxing Gibbous, 99% of the Moon is Illuminated
May 13
Waxing Gibbous
May 14
Full
May 21
Last Quarter
May 28
New
Jun 5
First Quarter

Hourly Weather History & Observations

Time (CDT) Temp. Heat Index Dew Point Humidity Pressure Visibility Wind Dir Wind Speed Gust Speed Precip Events Conditions
1:21 AM 70.0 °F - 69.1 °F 97% 30.05 in 9.0 mi Calm Calm - N/A   Mostly Cloudy
1:30 AM 70.0 °F - 69.1 °F 97% 30.04 in 8.0 mi Calm Calm - N/A   Scattered Clouds
1:53 AM 69.1 °F - 68.0 °F 96% 30.04 in 4.0 mi Calm Calm - N/A   Clear
2:08 AM 69.1 °F - 68.0 °F 96% 30.04 in 1.8 mi Calm Calm - N/A   Partly Cloudy
2:21 AM 68.0 °F - 68.0 °F 100% 30.04 in 3.0 mi NW 3.5 mph - N/A   Clear
2:53 AM 68.0 °F - 68.0 °F 100% 30.04 in 4.0 mi Calm Calm - N/A   Scattered Clouds
3:05 AM 68.0 °F - 68.0 °F 100% 30.03 in 1.5 mi Calm Calm - N/A   Partly Cloudy
3:38 AM 66.0 °F - 66.0 °F 100% 30.04 in 1.5 mi Calm Calm - N/A   Scattered Clouds
3:42 AM 66.9 °F - 66.0 °F 97% 30.04 in 0.8 mi Calm Calm - N/A   Unknown
3:53 AM 66.9 °F - 66.0 °F 97% 30.04 in 1.2 mi Calm Calm - N/A   Scattered Clouds
4:03 AM 64.9 °F - 64.9 °F 100% 30.03 in 0.8 mi Calm Calm - N/A   Unknown
4:21 AM 64.9 °F - 64.9 °F 100% 30.03 in 0.5 mi North 3.5 mph - N/A   Unknown
4:50 AM 64.4 °F - 64.4 °F 100% 30.04 in 2.0 mi Calm Calm - N/A   Mostly Cloudy
4:53 AM 64.9 °F - 64.9 °F 100% 30.04 in 2.0 mi Calm Calm - N/A   Mostly Cloudy
4:56 AM 64.9 °F - 64.9 °F 100% 30.04 in 1.5 mi Calm Calm - N/A   Scattered Clouds
4:58 AM 64.9 °F - 64.9 °F 100% 30.03 in 0.8 mi Calm Calm - N/A   Unknown
5:05 AM 64.9 °F - 64.0 °F 97% 30.03 in 0.2 mi Calm Calm - N/A   Unknown
5:14 AM 64.9 °F - 64.9 °F 100% 30.04 in 0.8 mi Calm Calm - N/A   Unknown
5:16 AM 64.9 °F - 64.9 °F 100% 30.03 in 1.2 mi Calm Calm - N/A   Partly Cloudy
5:21 AM 64.9 °F - 64.0 °F 97% 30.03 in 3.0 mi Calm Calm - N/A   Partly Cloudy
5:45 AM 64.9 °F - 64.0 °F 97% 30.03 in 1.8 mi Calm Calm - N/A   Clear
5:53 AM 64.0 °F - 64.0 °F 100% 30.04 in 1.2 mi Calm Calm - N/A   Clear
6:05 AM 64.0 °F - 64.0 °F 100% 30.03 in 3.0 mi Calm Calm - N/A   Clear
6:53 AM 68.0 °F - 66.9 °F 96% 30.06 in 6.0 mi Calm Calm - N/A   Clear
8:53 AM 78.1 °F - 70.0 °F 76% 30.09 in 10.0 mi ESE 6.9 mph - N/A   Partly Cloudy
9:53 AM 81.0 °F 83.8 °F 68.0 °F 65% 30.09 in 10.0 mi SE 8.1 mph - N/A   Partly Cloudy
11:53 AM 82.0 °F 84.5 °F 66.9 °F 60% 30.09 in 10.0 mi SSE 10.4 mph - N/A   Clear
12:53 PM 84.0 °F 88.4 °F 70.0 °F 63% 30.07 in 10.0 mi SE 11.5 mph 18.4 mph N/A   Partly Cloudy
1:53 PM 82.0 °F 86.3 °F 71.1 °F 69% 30.06 in 10.0 mi SSE 12.7 mph - N/A   Mostly Cloudy
2:53 PM 82.9 °F 88.0 °F 72.0 °F 69% 30.05 in 10.0 mi SE 11.5 mph - N/A   Scattered Clouds
3:53 PM 81.0 °F 85.2 °F 72.0 °F 74% 30.04 in 10.0 mi SSE 11.5 mph - N/A   Clear
4:53 PM 81.0 °F 85.2 °F 72.0 °F 74% 30.02 in 10.0 mi South 11.5 mph - N/A   Partly Cloudy
5:53 PM 80.1 °F 83.8 °F 72.0 °F 76% 30.01 in 10.0 mi SSE 12.7 mph - N/A   Clear
6:53 PM 78.1 °F - 71.1 °F 79% 30.02 in 10.0 mi SE 10.4 mph - N/A   Partly Cloudy
7:53 PM 75.0 °F - 71.1 °F 87% 30.03 in 10.0 mi SE 4.6 mph - N/A   Clear
8:53 PM 73.0 °F - 71.1 °F 93% 30.04 in 8.0 mi SSE 3.5 mph - N/A   Clear
9:53 PM 72.0 °F - 71.1 °F 97% 30.05 in 7.0 mi Calm Calm - N/A   Clear
10:53 PM 71.1 °F - 70.0 °F 96% 30.06 in 4.0 mi Calm Calm - N/A   Mostly Cloudy
11:03 PM 71.1 °F - 70.0 °F 96% 30.06 in 2.5 mi Calm Calm - N/A   Scattered Clouds
11:16 PM 71.1 °F - 71.1 °F 100% 30.06 in 5.0 mi Calm Calm - N/A   Partly Cloudy
11:25 PM 70.0 °F - 70.0 °F 100% 30.06 in 1.8 mi Calm Calm - N/A   Partly Cloudy
11:30 PM 70.0 °F - 69.1 °F 97% 30.06 in 0.8 mi Calm Calm - N/A   Unknown
11:38 PM 70.0 °F - 70.0 °F 100% 30.06 in 1.2 mi Calm Calm - N/A   Partly Cloudy
11:41 PM 70.0 °F - 70.0 °F 100% 30.06 in 3.0 mi Calm Calm - N/A   Partly Cloudy
11:53 PM 70.0 °F - 70.0 °F 100% 30.06 in 4.0 mi Calm Calm - N/A   Partly Cloudy